sat.trackr.live / text

‹ back to catalog

PERUSAT 1

NORAD 41770 · 2016-058A

PAYLOAD ACTIVE UNKNOWN

§ Identity

Operator
Country
PERU
Launch date
2016-09-16
Launch site
FRGUI
Launch vehicle
Mass (kg)
RCS (m²)
2.33

External: N2YO · Heavens-Above · Gunter

§ Orbital elements

Epoch: 2026-05-25T04:28:48.853056Z

Period
98.73 min
Inclination
98.2020°
Eccentricity
0.0001409
Mean motion
14.58539895 rev/d
Perigee alt
696.9 km
Apogee alt
698.9 km
Semi-major
7,076.0 km
B*
3.2443e-5
RAAN
219.1293°
Arg perigee
83.8884°
Mean anomaly
276.2476°
Rev number
51,574

§ Raw data

PERUSAT 11 41770U 16058A   26145.18667654  .00000105  00000+0  32443-4 0  99952 41770  98.2020 219.1293 0001409  83.8884 276.2476 14.58539895515745

JSON: /api/v1/satellites/41770 · /tle

For live sub-satellite position, see the globe view (requires WebGL).

§ Visibility from observer

Set your observer location to see the next 7 days of passes ≥ 10°. The values pass through the URL so the page stays shareable.

No JS? Fill the form by hand. The geolocation button needs JavaScript.